| time (UTC) | temp F | wind direction | speed MPH | gust MPH | rain 1hr in | rain 24hr in | rain mn in | humidity % | barometer mb |
| 20260905070039 | 76 | 65 | 0.0 | 0.0 | 0.00 | 0.06 | 0.00 | 59 | 1004.3 |
| 20260905064647 | 77 | 65 | 0.0 | 0.0 | 0.00 | 0.06 | 0.00 | 58 | 1004.2 |
| 20260905063059 | 77 | 59 | 1.0 | 3.0 | 0.00 | 0.06 | 0.00 | 57 | 1004.2 |
| 20260905061651 | 78 | 60 | 0.0 | 4.0 | 0.00 | 0.06 | 0.00 | 55 | 1004.2 |
| 20260905060054 | 78 | 46 | 0.0 | 4.0 | 0.00 | 0.06 | 0.00 | 54 | 1004.2 |
| 20260905054608 | 78 | 49 | 3.0 | 5.0 | 0.00 | 0.06 | 0.06 | 55 | 1004.2 |
| 20260905053045 | 78 | 44 | 0.0 | 1.0 | 0.00 | 0.06 | 0.06 | 55 | 1004.3 |
| 20260905051516 | 79 | 68 | 0.0 | 5.0 | 0.00 | 0.06 | 0.06 | 55 | 1004.1 |
| 20260905050103 | 79 | 23 | 1.0 | 4.0 | 0.00 | 0.06 | 0.06 | 55 | 1004.2 |
| 20260905044528 | 79 | 28 | 2.0 | 6.0 | 0.00 | 0.06 | 0.06 | 56 | 1004.3 |
| 20260905043138 | 79 | 18 | 3.0 | 6.0 | 0.00 | 0.06 | 0.06 | 57 | 1004.3 |
| 20260905041548 | 79 | 14 | 0.0 | 3.0 | 0.00 | 0.06 | 0.06 | 55 | 1004.2 |
| 20260905040006 | 80 | 60 | 0.0 | 0.0 | 0.00 | 0.06 | 0.06 | 53 | 1004.0 |
| 20260905034605 | 80 | 60 | 0.0 | 1.0 | 0.00 | 0.06 | 0.06 | 52 | 1003.7 |
| 20260905033106 | 81 | 89 | 1.0 | 3.0 | 0.00 | 0.06 | 0.06 | 52 | 1003.6 |
| 20260905031554 | 81 | 58 | 0.0 | 0.0 | 0.00 | 0.06 | 0.06 | 52 | 1003.6 |
| 20260905030042 | 81 | 58 | 0.0 | 2.0 | 0.00 | 0.06 | 0.06 | 50 | 1003.4 |
| 20260905024502 | 81 | 309 | 0.0 | 0.0 | 0.00 | 0.06 | 0.06 | 53 | 1003.1 |
| 20260905023125 | 81 | 328 | 0.0 | 0.0 | 0.00 | 0.06 | 0.06 | 52 | 1003.0 |
| 20260905021548 | 81 | 329 | 0.0 | 3.0 | 0.00 | 0.06 | 0.06 | 51 | 1002.9 |
| 20260905020031 | 81 | 288 | 3.0 | 6.0 | 0.01 | 0.06 | 0.06 | 51 | 1002.7 |
| 20260905014640 | 81 | 298 | 3.0 | 6.0 | 0.01 | 0.06 | 0.06 | 54 | 1002.4 |
| 20260905013043 | 81 | 331 | 3.0 | 7.0 | 0.01 | 0.06 | 0.06 | 55 | 1002.3 |
| 20260905011642 | 79 | 317 | 0.0 | 7.0 | 0.01 | 0.06 | 0.06 | 64 | 1002.2 |
| 20260905010104 | 82 | 276 | 9.0 | 15.0 | 0.00 | 0.05 | 0.05 | 55 | 1002.4 |
| 20260905004515 | 84 | 281 | 9.0 | 16.0 | 0.00 | 0.05 | 0.05 | 48 | 1002.2 |
| 20260905003124 | 84 | 307 | 9.0 | 19.0 | 0.00 | 0.05 | 0.05 | 47 | 1002.1 |
| 20260905001556 | 88 | 249 | 8.0 | 14.0 | 0.00 | 0.05 | 0.05 | 40 | 1001.8 |
| 20260905000152 | 89 | 252 | 0.0 | 4.0 | 0.00 | 0.05 | 0.05 | 36 | 1001.6 |
| 20260904233051 | 91 | 245 | 4.0 | 11.0 | 0.00 | 0.05 | 0.05 | 35 | 1001.6 |
| 20260904231549 | 92 | 250 | 1.0 | 7.0 | 0.00 | 0.05 | 0.05 | 35 | 1001.5 |
| 20260904230105 | 91 | 219 | 5.0 | 10.0 | 0.00 | 0.05 | 0.05 | 35 | 1001.6 |
| 20260904224548 | 90 | 311 | 1.0 | 10.0 | 0.00 | 0.05 | 0.05 | 36 | 1001.6 |
| 20260904223051 | 90 | 255 | 4.0 | 8.0 | 0.00 | 0.05 | 0.05 | 36 | 1001.7 |
| 20260904221545 | 91 | 131 | 1.0 | 9.0 | 0.00 | 0.05 | 0.05 | 37 | 1001.9 |
| 20260904220045 | 91 | 223 | 4.0 | 8.0 | 0.00 | 0.05 | 0.05 | 38 | 1002.2 |
| 20260904214539 | 91 | 229 | 4.0 | 10.0 | 0.00 | 0.05 | 0.05 | 38 | 1002.3 |
| 20260904213040 | 91 | 239 | 1.0 | 11.0 | 0.00 | 0.05 | 0.05 | 36 | 1002.5 |
| 20260904211536 | 90 | 220 | 2.0 | 13.0 | 0.00 | 0.05 | 0.05 | 38 | 1002.6 |
| 20260904210034 | 90 | 211 | 0.0 | 7.0 | 0.00 | 0.05 | 0.05 | 39 | 1002.8 |
| 20260904204534 | 88 | 250 | 7.0 | 10.0 | 0.00 | 0.05 | 0.05 | 41 | 1003.0 |
| 20260904203031 | 88 | 293 | 5.0 | 9.0 | 0.00 | 0.05 | 0.05 | 42 | 1003.3 |
| 20260904201530 | 87 | 285 | 3.0 | 8.0 | 0.00 | 0.05 | 0.05 | 41 | 1003.6 |
| 20260904200041 | 88 | 243 | 4.0 | 11.0 | 0.00 | 0.05 | 0.05 | 42 | 1003.8 |
| 20260904194533 | 87 | 200 | 2.0 | 9.0 | 0.00 | 0.05 | 0.05 | 43 | 1004.0 |
| 20260904193035 | 87 | 245 | 2.0 | 7.0 | 0.00 | 0.05 | 0.05 | 43 | 1004.1 |
| 20260904191535 | 86 | 243 | 1.0 | 8.0 | 0.00 | 0.05 | 0.05 | 44 | 1004.4 |
| 20260904190024 | 86 | 224 | 0.0 | 8.0 | 0.00 | 0.05 | 0.05 | 45 | 1004.7 |
| 20260904184521 | 85 | 123 | 2.0 | 5.0 | 0.00 | 0.05 | 0.05 | 49 | 1005.0 |
| 20260904183020 | 84 | 268 | 1.0 | 7.0 | 0.00 | 0.05 | 0.05 | 50 | 1005.3 |
| 20260904181526 | 83 | 260 | 1.0 | 7.0 | 0.00 | 0.05 | 0.05 | 52 | 1005.6 |
| 20260904180020 | 82 | 211 | 2.0 | 5.0 | 0.00 | 0.05 | 0.05 | 55 | 1005.9 |
| 20260904174516 | 81 | 315 | 0.0 | 7.0 | 0.00 | 0.05 | 0.05 | 57 | 1006.0 |
| 20260904173015 | 80 | 268 | 1.0 | 8.0 | 0.00 | 0.05 | 0.05 | 57 | 1006.2 |
| 20260904171515 | 81 | 235 | 1.0 | 6.0 | 0.00 | 0.05 | 0.05 | 58 | 1006.2 |
| 20260904170013 | 79 | 251 | 2.0 | 6.0 | 0.00 | 0.05 | 0.05 | 61 | 1006.3 |
| 20260904164512 | 78 | 275 | 1.0 | 7.0 | 0.00 | 0.05 | 0.05 | 63 | 1006.3 |
| 20260904163012 | 77 | 295 | 0.0 | 5.0 | 0.00 | 0.05 | 0.05 | 65 | 1006.3 |
| 20260904161511 | 76 | 240 | 1.0 | 4.0 | 0.00 | 0.05 | 0.05 | 65 | 1006.3 |
| 20260904160012 | 75 | 230 | 1.0 | 5.0 | 0.00 | 0.05 | 0.05 | 67 | 1006.2 |
| 20260904154509 | 73 | 191 | 3.0 | 5.0 | 0.00 | 0.05 | 0.05 | 70 | 1006.1 |
| 20260904153013 | 72 | 216 | 1.0 | 5.0 | 0.00 | 0.05 | 0.05 | 75 | 1006.1 |
| 20260904151509 | 72 | 236 | 1.0 | 5.0 | 0.00 | 0.05 | 0.05 | 77 | 1005.9 |
| 20260904150006 | 71 | 236 | 1.0 | 4.0 | 0.00 | 0.05 | 0.05 | 79 | 1005.9 |
| 20260904144504 | 71 | 255 | 0.0 | 3.0 | 0.00 | 0.05 | 0.05 | 79 | 1005.8 |
| 20260904143012 | 70 | 266 | 0.0 | 5.0 | 0.00 | 0.05 | 0.05 | 79 | 1005.9 |
| 20260904141507 | 70 | 258 | 3.0 | 5.0 | 0.00 | 0.05 | 0.05 | 80 | 1005.8 |
| 20260904140001 | 70 | 259 | 1.0 | 5.0 | 0.00 | 0.05 | 0.05 | 80 | 1005.5 |
| 20260904134602 | 70 | 262 | 0.0 | 1.0 | 0.00 | 0.05 | 0.05 | 79 | 1005.4 |
| 20260904133059 | 69 | 72 | 0.0 | 0.0 | 0.00 | 0.05 | 0.05 | 78 | 1005.2 |
| 20260904131607 | 69 | 72 | 0.0 | 0.0 | 0.01 | 0.05 | 0.05 | 77 | 1005.1 |
| 20260904130055 | 69 | 72 | 0.0 | 0.0 | 0.03 | 0.05 | 0.05 | 79 | 1004.9 |
| 20260904124554 | 69 | 82 | 0.0 | 5.0 | 0.03 | 0.05 | 0.05 | 79 | 1004.8 |
| 20260904123054 | 69 | 111 | 0.0 | 4.0 | 0.03 | 0.04 | 0.04 | 76 | 1004.9 |
| 20260904121553 | 69 | 110 | 1.0 | 6.0 | 0.03 | 0.04 | 0.04 | 79 | 1004.9 |
| 20260904120051 | 69 | 217 | 0.0 | 0.0 | 0.01 | 0.02 | 0.02 | 79 | 1004.9 |
| 20260904114550 | 69 | 207 | 0.0 | 3.0 | 0.01 | 0.02 | 0.02 | 79 | 1004.7 |
| 20260904113048 | 70 | 229 | 0.0 | 3.0 | 0.00 | 0.01 | 0.01 | 78 | 1004.7 |
| 20260904111546 | 70 | 219 | 0.0 | 2.0 | 0.01 | 0.01 | 0.01 | 78 | 1004.7 |
| 20260904110045 | 71 | 195 | 0.0 | 2.0 | 0.01 | 0.01 | 0.01 | 77 | 1004.9 |
| 20260904104544 | 70 | 225 | 0.0 | 0.0 | 0.01 | 0.01 | 0.01 | 77 | 1004.8 |
| 20260904103053 | 70 | 225 | 0.0 | 0.0 | 0.01 | 0.01 | 0.01 | 77 | 1004.5 |
| 20260904101549 | 71 | 225 | 0.0 | 0.0 | 0.00 | 0.00 | 0.00 | 73 | 1004.3 |
| 20260904100037 | 71 | 232 | 0.0 | 0.0 | 0.00 | 0.00 | 0.00 | 72 | 1004.2 |
| 20260904094544 | 72 | 219 | 4.0 | 9.0 | 0.00 | 0.00 | 0.00 | 66 | 1004.2 |
| 20260904093029 | 74 | 199 | 4.0 | 11.0 | 0.00 | 0.00 | 0.00 | 63 | 1004.2 |
| 20260904091528 | 74 | 245 | 2.0 | 9.0 | 0.00 | 0.00 | 0.00 | 62 | 1004.0 |
| 20260904090029 | 74 | 210 | 2.0 | 6.0 | 0.00 | 0.00 | 0.00 | 61 | 1004.3 |
| 20260904084628 | 74 | 195 | 3.0 | 7.0 | 0.00 | 0.00 | 0.00 | 61 | 1004.6 |
| 20260904083035 | 75 | 241 | 5.0 | 9.0 | 0.00 | 0.00 | 0.00 | 59 | 1004.5 |
| 20260904081519 | 76 | 227 | 9.0 | 16.0 | 0.00 | 0.00 | 0.00 | 57 | 1004.4 |
| 20260904080020 | 76 | 189 | 8.0 | 14.0 | 0.00 | 0.00 | 0.00 | 55 | 1004.4 |
| 20260904074513 | 77 | 141 | 6.0 | 13.0 | 0.00 | 0.00 | 0.00 | 54 | 1004.3 |
| 20260904073012 | 77 | 217 | 4.0 | 16.0 | 0.00 | 0.00 | 0.00 | 57 | 1004.2 |
| 20260904071510 | 78 | 242 | 9.0 | 19.0 | 0.00 | 0.00 | 0.00 | 55 | 1003.9 |